Regional Weather Roundup
Issued by NWS

Home | Current Version | Previous Version | Text Only | Print | Product List | Glossary Off
Versions: 1 2 3 4 5 6 7 8 9 10 11 12 13 14 15 16 17 18 19 20 21 22 23 24 25 26 27 28 29 30 31 32 33 34 35 36 37 38 39 40 41 42 43 44 45 46 47 48 49 50

000
ASUS43 KMPX 211401
RWRMN
WEATHER ROUNDUP FOR MINNESOTA
NATIONAL WEATHER SERVICE TWIN CITIES/CHANHASSEN MN
900 AM CDT SUN SEP 21 2014


NOTE: "FAIR" INDICATES FEW OR NO CLOUDS BELOW 12,000 FEET WITH NO
SIGNIFICANT WEATHER AND/OR OBSTRUCTIONS TO VISIBILITY. N/A MEANS
CURRENT SKY AND/OR WEATHER CONDITIONS ARE NOT AVAILABLE.

MNZ060>063-068>070-211500-
   Twin Cities Metro

CITY           SKY/WX    TMP DP  RH WIND       PRES   REMARKS
TWIN CITIES    MOSUNNY   56  48  74 NW15      30.06R
ST PAUL        SUNNY     56  49  77 N14       30.07R
CRYSTAL        SUNNY     56  47  71 NW13      30.07R
BLAINE         MOSUNNY   57  52  82 NW12G17   30.07R
LAKEVILLE      PTSUNNY   54  48  82 NW10      30.06R
EDEN PRAIRIE   MOSUNNY   55  48  77 NW15      30.06R
SOUTH ST PAUL  SUNNY     56  49  77 N10G17    30.06R
LAKE ELMO      CLOUDY    54  50  87 N9        30.07R
$$
MNZ001>005-007-008-013>017-022>024-027-028-211500-
   Northwest Minnesota

CITY           SKY/WX    TMP DP  RH WIND       PRES   REMARKS
BEMIDJI        CLOUDY    52  49  90 N5        30.12R
HALLOCK        CLOUDY    54  52  94 N8        30.16R
ROSEAU         CLOUDY    54  48  82 W7        30.14R
WARROAD        CLOUDY    52  46  82 NW3       30.14R
THIEF RVR FALL CLOUDY    52  48  87 N10       30.16R
CROOKSTON      CLOUDY    52  50  93 N10       30.18R FOG
FOSSTON        CLOUDY    50  48  93 NW7       30.16R
DETROIT LAKES  CLOUDY    52  50  93 N15       30.17R FOG
MOORHEAD       CLOUDY    52  52 100 N8        30.19R
PARK RAPIDS    LGT RAIN  52  50  93 N6        30.12R FOG
MAHNOMEN       CLOUDY    50  49  97 NW9       30.14R FOG
$$
MNZ006-009>011-018-025>026-211500-
   North Central Minnesota

CITY           SKY/WX    TMP DP  RH WIND       PRES   REMARKS
BAUDETTE       MOSUNNY   54  51  90 N7        30.11R
FLAG ISLAND    MOSUNNY   52  48  87 NW8       30.11R
INTL FALLS     MOSUNNY   52  48  86 N9        30.09R
WASKISH        FOG       50  48  93 N6        30.12R VSB 1/4
BIG FORK       CLOUDY    50  48  93 N5        30.10R
LONGVILLE      MOSUNNY   52  48  87 N5        30.10R
GRAND RAPIDS   CLOUDY    50  45  81 NW10      30.09R
CRANE LAKE     CLOUDY    46  45  93 NW6       30.10R
ORR            MOSUNNY   50  45  81 N3        30.05R
COOK           MOSUNNY   52  46  82 N7        30.07R
WALKER         CLOUDY    52  50  91 NW3       30.11R
$$
MNZ012-019>021-037-211500-
   Northeast Minnesota

CITY           SKY/WX    TMP DP  RH WIND       PRES   REMARKS
DULUTH         PTSUNNY   52  47  83 NW7       30.03R
ELY            MOSUNNY   46  39  76 N9        30.05R
HIBBING        CLOUDY    52  47  83 N15       30.07R
EVELETH        MOSUNNY   50  46  87 NW9       30.06R
DULUTH HARBOR  PTSUNNY   57  52  82 N7        30.05R
TWO HARBORS    SUNNY     52  43  71 CALM      30.01R
SILVER BAY     SUNNY     46  46 100 CALM      30.01R
GRAND MARAIS     N/A     48  39  71 VRB7      30.03R
G MARAIS ARPRT CLOUDY    39  34  81 N12G24    30.01R
$$
MNZ029>031-032-039>041-046>048-054>057-064-211500-
   West Central Minnesota

CITY           SKY/WX    TMP DP  RH WIND       PRES   REMARKS
FERGUS FALLS   CLOUDY    52  48  87 N9G17     30.17R
WHEATON        SUNNY     52  46  82 NW10      30.20R
MORRIS         CLOUDY    52  48  87 N16       30.15R
ALEXANDRIA     PTSUNNY   53  49  86 NW12      30.15R
ELBOW LAKE     CLOUDY    52  49  90 N14       30.15R
WADENA         CLOUDY    52  50  93 NW8       30.13R
GLENWOOD       SUNNY     54  50  87 NW9       30.15R
APPLETON       SUNNY     55  48  76 N13       30.16R
BENSON         SUNNY     52  50  93 N10       30.15R
ORTONVILLE     SUNNY     54  46  76 NW9       30.17R
MADISON        SUNNY     55  52  88 NW9       30.17R
WILLMAR        FAIR      54  50  87 NW7       30.15R
$$
MNZ033>034-036-042>043-049>051-058-059-211500-
   Central Minnesota

CITY           SKY/WX    TMP DP  RH WIND       PRES   REMARKS
ST CLOUD       PTSUNNY   56  48  74 NW10      30.10R
SAUK CENTRE    CLOUDY    52  49  91 NW8       30.13R
PAYNESVILLE    PTSUNNY   51  48  92 W8        30.13R
AITKIN         PTSUNNY   54  48  82 NW6       30.07R
PINE RIVER     CLOUDY    52  48  87 NW5       30.14R
BRAINERD       MOSUNNY   51  48  89 NW10      30.11R
STAPLES        CLOUDY    52  48  87 NW10      30.13R
LONG PRAIRIE   CLOUDY    52  48  87 W10       30.13R
LITTLE FALLS   PTSUNNY   52  46  82 NW7       30.11R
LITCHFIELD     PTSUNNY   55  52  88 N8        30.12R
BUFFALO        PTSUNNY   54  47  77 NW12G23   30.11R
MAPLE LAKE     PTSUNNY   56  51  82 NW8G16    30.12R
$$
MNZ037-044-045-052-053-211500-
   East Central Minnesota

CITY           SKY/WX    TMP DP  RH WIND       PRES   REMARKS
PRINCETON      CLOUDY    54  48  82 W13       30.09R
MORA           CLOUDY    50  45  81 N7        30.09R
CAMBRIDGE      PTSUNNY   55  46  71 NW13      30.06R
RUSH CITY      MOSUNNY   53  49  85 NW12      30.07R
MOOSE LAKE     MOSUNNY   54  46  76 N9        30.04R
HINCKLEY       FAIR      54  50  87 NW8       30.06R
CLOQUET        CLOUDY    52  46  82 NW7       30.05R
MCGREGOR       CLOUDY    50  46  87 NW7       30.08R
$$
MNZ071>073-080-081-089-090-097-098-211500-
   Southwest Minnesota

CITY           SKY/WX    TMP DP  RH WIND       PRES   REMARKS
MONTEVIDEO     SUNNY     55  50  82 N12       30.17R
GRANITE FALLS  SUNNY     52  49  90 NW9       30.17R
CANBY          SUNNY     55  49  80 NW9       30.19R
MARSHALL       SUNNY     55  46  71 NW13      30.16R
REDWOOD FALLS  MOSUNNY   54  50  86 NW8G18    30.14R
OLIVIA         SUNNY     54  52  94 NW8       30.13R
PIPESTONE      SUNNY     52  46  82 NW8       30.19R
WINDOM         MOSUNNY   54  48  82 NW17G23   30.15R
WORTHINGTON    SUNNY     55  46  71 NW16G22   30.17R
JACKSON        SUNNY     54  46  76 NW12G18   30.15R
TRACY          SUNNY     55  48  78 NW13      30.16R
SLAYTON        SUNNY     54  47  79 NW15      30.17R
$$
MNZ065>067-074>077-082>085-091>093-211500-
   South Central Minnesota

CITY           SKY/WX    TMP DP  RH WIND       PRES   REMARKS
MANKATO        SUNNY     54  46  76 NW15G22   30.09R
NEW ULM        SUNNY     54  52  94 NW13      30.12R
ST JAMES       SUNNY     55  48  76 NW10G18   30.13R
FAIRMONT       MOSUNNY   55  45  67 NW14G20   30.11R
GLENCOE        MOSUNNY   56  49  76 NW10G20   30.11R
FARIBAULT      PTSUNNY   55  46  71 NW14G20   30.07R
OWATONNA       PTSUNNY   54  48  82 NW16      30.07R
WASECA         MOSUNNY   52  45  76 N15G23    30.09R
ALBERT LEA     PTSUNNY   54  50  87 NW13G23   30.06R
$$
MNZ078>079-086>088-094>096-211500-
   Southeast Minnesota

CITY           SKY/WX    TMP DP  RH WIND       PRES   REMARKS
ROCHESTER      CLOUDY    53  48  83 N17G29    30.03R
RED WING       CLOUDY    55  50  82 N8        30.03R
STANTON        CLOUDY    55  48  77 NW13      30.05R
DODGE CENTER   CLOUDY    54  48  82 N15       30.04R
WINONA         CLOUDY    55  52  88 NW12G21   29.98R
AUSTIN         CLOUDY    52  48  87 NW17G25   30.05R
PRESTON        CLOUDY    52  51  96 NW18G28   30.01R
$$
ABBREVIATIONS USED IN REMARKS
   TC - TEMPERATURES IN CELSIUS
  WCI - WIND CHILL INDEX
   HX - HEAT INDEX
  VSB - VISIBILITY
$$



USA.gov is the U.S. government's official web portal to all federal, state and local government web resources and services.